Terminal Aerodrome Forecast
Issued by NWS

Current Version | Previous Version | Text Only | Print | Product List | Glossary Off
Versions: 1 2 3 4 5 6 7 8 9 10 11 12 13 14 15 16 17 18 19

000
FTUS41 KRNK 281731
TAFLWB
TAF
KLWB 281731Z 2818/2918 23007KT P6SM BKN250
     FM290000 24003KT P6SM SCT100 BKN250
     FM290700 24006KT P6SM -SHRA SCT035 OVC100
     FM291000 28007KT 4SM -SHRA SCT012 OVC035
     FM291100 30005KT 1/4SM -RA FG SCT006 OVC012
     FM291400 29008KT P6SM OVC025=

USA.gov is the U.S. government's official web portal to all federal, state and local government web resources and services.